SCP
-0 0 0 0 0 0 0 0 0 0 0 0 0 0 0 0 0 0 0 0 0 0
0 0 0 0 0 0 0 0 0 0 0 0 0 0 0 0 0 0 0 0 0 0
1 0 0 0 0 0 1 0 1 0 0 0 0 0 0 0 0 0 0 0 0 0
1 1 1 1 1 1 1 1 1 1 1 0 0 0 0 0 0 0 0 0 1 0
0 0 0 0 0 1 0 0 1 1 1 1 1 0 1 0 0 1 0 0 1 0
0 0 0 0 0 0 0 0 0 0 0 1 1 1 1 1 1 1 1 1 1 0
0 0 0 0 0 0 0 0 0 0 0 0 0 1 1 1 1 1 1 1 1 1
0 0 0 0 0 0 0 0 0 0 1 1 1 1 1 1 1 1 1 1 1 1
0 0 0 0 0 0 0 0 0 0 0 0 0 0 0 0 0 0 0 0 1 1
0 0 0 0 0 0 0 0 0 0 0 0 0 0 0 0 0 0 0 0 0 0
0 0 0 0 0 0 0 0 0 0 0 0 0 0 0 0 0 0 0 0 0 0
0 0 0 0 0 0 0 0 0 0 0 0 0 0 0 0 0 0 0 0 0 0
0 0 0 0 0 0 0 0 0 0 0 0 0 0 0 0 0 0 0 0 0 0
0 0 0 0 0 0 0 0 0 0 0 0 0 0 0 0 0 0 0 0 0 0
Wind_Speed_500mb
20 23 27 30 36 41 43 41 41 48 43 35 36 42 37 34 36 37 37 37 38 36
33 30 34 38 41 41 40 39 42 43 44 45 42 38 39 40 38 38 38 36 35 38
16 24 31 38 42 43 41 41 38 39 43 45 42 42 44 46 45 41 40 42 40 38
14 16 20 28 35 36 31 42 44 44 46 44 44 47 47 50 47 46 46 43 46 44
17 20 20 17 18 24 32 34 38 40 38 38 43 46 52 53 48 48 49 48 50 50
23 23 23 23 21 24 27 28 25 32 38 36 37 40 44 47 47 48 49 46 46 45
32 34 35 31 30 27 26 27 27 25 30 34 40 56 49 44 46 46 46 45 44 44
35 36 35 37 32 29 28 27 26 25 25 28 38 45 47 45 43 44 48 48 47 43
33 34 35 34 36 32 29 29 29 28 28 28 31 34 32 34 37 39 50 54 52 50
36 37 38 39 39 38 37 36 31 29 28 29 30 29 30 28 32 36 37 40 48 58
40 43 43 43 42 44 44 42 42 36 31 31 30 26 26 28 32 35 35 38 42 46
35 34 33 35 39 40 45 48 49 45 40 36 35 30 25 28 32 36 39 34 32 33
39 35 33 33 38 41 40 43 42 51 49 42 40 36 29 28 28 32 34 33 31 28
38 36 29 31 34 33 34 34 36 36 44 48 42 38 32 31 32 29 26 26 29 29
Wind_Direction_500mb
276 266 269 263 256 259 257 255 253 256 256 251 255 257 261 271 269 264 266 267 266 267
265 266 267 261 258 256 258 259 255 256 252 254 260 258 254 265 268 268 269 270 271 271
271 271 279 278 279 275 271 264 257 259 257 258 259 258 255 257 263 274 267 268 272 271
309 298 290 282 281 285 283 271 262 249 247 253 258 263 264 264 263 269 268 265 265 269
304 302 301 300 301 286 274 271 265 264 265 259 263 265 267 272 272 272 272 275 272 269
293 293 295 294 288 294 299 286 275 258 253 258 263 274 267 267 268 268 271 274 274 274
296 286 286 289 289 285 292 297 289 275 265 261 258 260 263 261 260 260 263 266 268 273
291 292 291 282 286 289 281 278 282 279 267 260 258 259 263 267 269 265 262 263 264 263
300 291 289 290 285 286 288 284 275 270 267 264 266 269 269 271 270 269 266 268 270 272
306 304 298 293 290 287 284 284 286 276 269 263 265 275 272 276 273 271 275 277 276 274
309 307 298 296 295 289 284 279 278 277 274 267 265 272 274 280 284 281 278 283 281 277
322 321 318 311 304 300 294 284 271 268 269 269 262 268 277 292 290 284 279 283 295 289
337 327 319 315 315 313 311 302 294 268 261 266 268 272 281 297 292 282 283 277 280 285
340 334 329 325 331 335 331 322 314 296 268 259 269 280 284 287 288 274 288 289 287 290
Wind_Speed_850mb
20 23 27 30 36 41 43 41 41 48 43 35 36 42 37 34 36 37 37 37 38 36
33 30 34 38 41 41 40 39 42 43 44 45 42 38 39 40 38 38 38 36 35 38
16 24 31 38 42 43 41 41 38 39 43 45 42 42 44 46 45 41 40 42 40 38
14 16 20 28 35 36 31 42 44 44 46 44 44 47 47 50 47 46 46 43 46 44
17 20 20 17 18 24 32 34 38 40 38 38 43 46 52 53 48 48 49 48 50 50
23 23 23 23 21 24 27 28 25 32 38 36 37 40 44 47 47 48 49 46 46 45
32 34 35 31 30 27 26 27 27 25 30 34 40 56 49 44 46 46 46 45 44 44
35 36 35 37 32 29 28 27 26 25 25 28 38 45 47 45 43 44 48 48 47 43
33 34 35 34 36 32 29 29 29 28 28 28 31 34 32 34 37 39 50 54 52 50
36 37 38 39 39 38 37 36 31 29 28 29 30 29 30 28 32 36 37 40 48 58
40 43 43 43 42 44 44 42 42 36 31 31 30 26 26 28 32 35 35 38 42 46
35 34 33 35 39 40 45 48 49 45 40 36 35 30 25 28 32 36 39 34 32 33
39 35 33 33 38 41 40 43 42 51 49 42 40 36 29 28 28 32 34 33 31 28
38 36 29 31 34 33 34 34 36 36 44 48 42 38 32 31 32 29 26 26 29 29
Wind_Direction_850mb
276 266 269 263 256 259 257 255 253 256 256 251 255 257 261 271 269 264 266 267 266 267
265 266 267 261 258 256 258 259 255 256 252 254 260 258 254 265 268 268 269 270 271 271
271 271 279 278 279 275 271 264 257 259 257 258 259 258 255 257 263 274 267 268 272 271
309 298 290 282 281 285 283 271 262 249 247 253 258 263 264 264 263 269 268 265 265 269
304 302 301 300 301 286 274 271 265 264 265 259 263 265 267 272 272 272 272 275 272 269
293 293 295 294 288 294 299 286 275 258 253 258 263 274 267 267 268 268 271 274 274 274
296 286 286 289 289 285 292 297 289 275 265 261 258 260 263 261 260 260 263 266 268 273
291 292 291 282 286 289 281 278 282 279 267 260 258 259 263 267 269 265 262 263 264 263
300 291 289 290 285 286 288 284 275 270 267 264 266 269 269 271 270 269 266 268 270 272
306 304 298 293 290 287 284 284 286 276 269 263 265 275 272 276 273 271 275 277 276 274
309 307 298 296 295 289 284 279 278 277 274 267 265 272 274 280 284 281 278 283 281 277
322 321 318 311 304 300 294 284 271 268 269 269 262 268 277 292 290 284 279 283 295 289
337 327 319 315 315 313 311 302 294 268 261 266 268 272 281 297 292 282 283 277 280 285
340 334 329 325 331 335 331 322 314 296 268 259 269 280 284 287 288 274 288 289 287 290